Time,TemperatureF,DewpointF,PressureIn,WindDirection,WindDirectionDegrees,WindSpeedMPH,WindSpeedGustMPH,Humidity,HourlyPrecipIn,Conditions,Clouds,dailyrainin,SoftwareType,DateUTC
2013-02-12 00:01:00,36.0,36.0,29.29,NNW,329,0.0,0.0,100,0.00,,,0.27,,2013-02-12 05:01:00,
2013-02-12 00:11:00,36.0,36.0,29.29,NNW,329,0.0,0.0,100,0.00,,,0.27,,2013-02-12 05:11:00,
2013-02-12 00:21:00,36.0,36.0,29.30,NNW,329,0.0,0.0,100,0.00,,,0.27,,2013-02-12 05:21:00,
2013-02-12 00:32:00,36.0,36.0,29.30,NNW,329,0.0,0.0,100,0.00,,,0.27,,2013-02-12 05:32:00,
2013-02-12 00:42:00,36.0,36.0,29.30,NNW,329,0.0,0.0,100,0.00,,,0.27,,2013-02-12 05:42:00,
2013-02-12 00:52:00,35.0,35.0,29.30,NNW,329,0.0,0.0,100,0.00,,,0.27,,2013-02-12 05:52:00,
2013-02-12 01:02:00,34.0,34.0,29.31,NNW,329,0.0,0.0,100,0.00,,,0.27,,2013-02-12 06:02:00,
2013-02-12 01:12:00,33.0,33.0,29.31,NNW,329,0.0,0.0,100,0.00,,,0.27,,2013-02-12 06:12:00,
2013-02-12 01:21:00,33.0,33.0,29.31,NNW,329,0.0,0.0,100,0.00,,,0.27,,2013-02-12 06:21:00,
2013-02-12 01:32:00,33.0,33.0,29.31,NNW,329,0.0,0.0,100,0.00,,,0.27,,2013-02-12 06:32:00,
2013-02-12 01:42:00,38.0,31.0,29.29,NNW,329,0.0,0.0,76,0.00,,,0.27,,2013-02-12 06:42:00,
2013-02-12 01:51:00,38.0,31.0,29.29,NNW,329,0.0,0.0,76,0.00,,,0.27,,2013-02-12 06:51:00,
2013-02-12 02:01:00,40.0,30.0,29.31,WNW,291,0.0,0.0,68,0.00,,,0.27,,2013-02-12 07:01:00,
2013-02-12 02:11:00,40.0,30.0,29.31,WNW,291,0.0,0.0,68,0.00,,,0.27,,2013-02-12 07:11:00,
2013-02-12 02:21:00,40.0,30.0,29.31,WNW,291,0.0,0.0,66,0.00,,,0.27,,2013-02-12 07:21:00,
2013-02-12 02:32:00,40.0,30.0,29.33,WNW,291,0.0,0.0,67,0.00,,,0.27,,2013-02-12 07:32:00,
2013-02-12 02:42:00,40.0,30.0,29.33,WNW,291,0.0,0.0,67,0.00,,,0.27,,2013-02-12 07:42:00,
2013-02-12 02:51:00,40.0,30.0,29.33,SW,222,0.0,0.0,66,0.00,,,0.27,,2013-02-12 07:51:00,
2013-02-12 03:01:00,39.0,29.0,29.34,SW,222,0.0,0.0,67,0.00,,,0.28,,2013-02-12 08:01:00,
2013-02-12 03:11:00,39.0,29.0,29.34,SW,222,0.0,0.0,67,0.00,,,0.28,,2013-02-12 08:11:00,
2013-02-12 03:21:00,39.0,29.0,29.34,SW,222,0.0,0.0,66,0.00,,,0.28,,2013-02-12 08:21:00,
2013-02-12 03:32:00,39.0,29.0,29.34,SW,222,0.0,0.0,67,0.00,,,0.28,,2013-02-12 08:32:00,
2013-02-12 03:42:00,39.0,29.0,29.34,SW,222,0.0,0.0,67,0.00,,,0.28,,2013-02-12 08:42:00,
2013-02-12 03:52:00,39.0,29.0,29.34,SW,222,0.0,0.0,67,0.00,,,0.28,,2013-02-12 08:52:00,
2013-02-12 04:02:00,39.0,29.0,29.35,SW,222,0.0,0.0,67,0.00,,,0.28,,2013-02-12 09:02:00,
2013-02-12 04:11:00,39.0,29.0,29.35,SW,222,0.0,0.0,67,0.00,,,0.28,,2013-02-12 09:11:00,
2013-02-12 04:21:00,39.0,29.0,29.35,SW,222,0.0,0.0,67,0.00,,,0.28,,2013-02-12 09:21:00,
2013-02-12 04:32:00,39.0,29.0,29.36,SW,222,0.0,0.0,66,0.00,,,0.28,,2013-02-12 09:32:00,
2013-02-12 04:42:00,39.0,29.0,29.36,SW,222,0.0,0.0,66,0.00,,,0.28,,2013-02-12 09:42:00,
2013-02-12 04:51:00,39.0,29.0,29.36,SW,222,0.0,0.0,66,0.00,,,0.28,,2013-02-12 09:51:00,
2013-02-12 05:01:00,39.0,29.0,29.36,SW,222,0.0,0.0,66,0.00,,,0.28,,2013-02-12 10:01:00,
2013-02-12 05:11:00,39.0,29.0,29.36,SW,222,0.0,0.0,66,0.00,,,0.28,,2013-02-12 10:11:00,
2013-02-12 05:21:00,39.0,29.0,29.36,SW,222,0.0,0.0,66,0.00,,,0.28,,2013-02-12 10:21:00,
2013-02-12 05:32:00,39.0,29.0,29.36,SW,222,0.0,0.0,66,0.00,,,0.28,,2013-02-12 10:32:00,
2013-02-12 05:43:00,39.0,29.0,29.36,SW,222,0.0,0.0,66,0.00,,,0.28,,2013-02-12 10:43:00,
2013-02-12 05:51:00,39.0,29.0,29.37,SW,222,0.0,0.0,66,0.00,,,0.28,,2013-02-12 10:51:00,
2013-02-12 06:01:00,39.0,29.0,29.37,SW,222,0.0,0.0,66,0.00,,,0.28,,2013-02-12 11:01:00,
2013-02-12 06:11:00,39.0,29.0,29.37,SW,222,0.0,0.0,66,0.00,,,0.28,,2013-02-12 11:11:00,
2013-02-12 06:22:00,39.0,28.0,29.37,SW,222,0.0,0.0,65,0.00,,,0.28,,2013-02-12 11:22:00,
2013-02-12 06:32:00,39.0,28.0,29.37,SW,222,0.0,0.0,65,0.00,,,0.28,,2013-02-12 11:32:00,
2013-02-12 06:42:00,39.0,28.0,29.37,SW,222,0.0,0.0,65,0.00,,,0.28,,2013-02-12 11:42:00,
2013-02-12 06:53:00,39.0,29.0,29.38,SW,222,0.0,0.0,66,0.00,,,0.28,,2013-02-12 11:53:00,
2013-02-12 07:02:00,39.0,28.0,29.39,SW,222,0.0,0.0,65,0.00,,,0.28,,2013-02-12 12:02:00,
2013-02-12 07:11:00,39.0,28.0,29.39,SW,222,0.0,0.0,65,0.00,,,0.28,,2013-02-12 12:11:00,
2013-02-12 07:21:00,39.0,28.0,29.38,SW,222,0.0,0.0,65,0.00,,,0.28,,2013-02-12 12:21:00,
2013-02-12 07:32:00,38.0,27.0,29.38,SW,222,0.0,0.0,65,0.00,,,0.28,,2013-02-12 12:32:00,
2013-02-12 07:42:00,38.0,27.0,29.38,SW,222,0.0,0.0,65,0.00,,,0.28,,2013-02-12 12:42:00,
2013-02-12 07:52:00,38.0,27.0,29.38,SW,222,0.0,0.0,65,0.00,,,0.28,,2013-02-12 12:52:00,
2013-02-12 08:01:00,39.0,28.0,29.40,NW,307,0.0,0.0,64,0.00,,,0.27,,2013-02-12 13:01:00,
2013-02-12 08:11:00,39.0,28.0,29.40,NW,307,0.0,0.0,64,0.00,,,0.25,,2013-02-12 13:11:00,
2013-02-12 08:22:00,39.0,28.0,29.40,NW,307,0.0,0.0,64,0.00,,,0.25,,2013-02-12 13:22:00,
2013-02-12 08:32:00,39.0,27.0,29.41,NW,307,0.0,0.0,63,0.00,,,0.23,,2013-02-12 13:32:00,
2013-02-12 08:42:00,39.0,27.0,29.41,NW,307,0.0,0.0,63,0.00,,,0.23,,2013-02-12 13:42:00,
2013-02-12 08:52:00,40.0,28.0,29.42,WNW,284,0.0,0.0,61,0.00,,,0.20,,2013-02-12 13:52:00,
2013-02-12 09:01:00,40.0,28.0,29.42,NW,305,0.0,3.0,61,0.00,,,0.15,,2013-02-12 14:01:00,
2013-02-12 09:12:00,40.0,28.0,29.42,NW,305,0.0,3.0,61,0.00,,,0.15,,2013-02-12 14:12:00,
2013-02-12 09:22:00,40.0,28.0,29.42,NW,305,0.0,0.0,62,0.00,,,0.14,,2013-02-12 14:22:00,
2013-02-12 09:32:00,40.0,27.0,29.43,SSW,207,0.0,0.0,60,0.00,,,0.11,,2013-02-12 14:32:00,
2013-02-12 09:42:00,40.0,27.0,29.43,SSW,207,0.0,0.0,60,0.00,,,0.11,,2013-02-12 14:42:00,
2013-02-12 09:52:00,40.0,27.0,29.43,SSW,207,0.0,0.0,60,0.00,,,0.10,,2013-02-12 14:52:00,
2013-02-12 10:02:00,41.0,28.0,29.44,SSW,207,0.0,0.0,59,0.00,,,0.07,,2013-02-12 15:02:00,
2013-02-12 10:11:00,41.0,28.0,29.44,SSW,207,0.0,0.0,59,0.00,,,0.05,,2013-02-12 15:11:00,
2013-02-12 10:21:00,41.0,28.0,29.44,SSW,207,0.0,0.0,59,0.00,,,0.05,,2013-02-12 15:21:00,
2013-02-12 10:32:00,41.0,27.0,29.44,SSW,207,0.0,0.0,58,0.00,,,0.04,,2013-02-12 15:32:00,
2013-02-12 10:42:00,41.0,27.0,29.44,SSW,207,0.0,0.0,58,0.00,,,0.04,,2013-02-12 15:42:00,
2013-02-12 10:52:00,41.0,27.0,29.44,SSW,207,0.0,0.0,58,0.00,,,0.04,,2013-02-12 15:52:00,
2013-02-12 11:01:00,41.0,27.0,29.45,SW,236,2.0,8.0,56,0.00,,,0.03,,2013-02-12 16:01:00,
2013-02-12 11:11:00,41.0,27.0,29.45,SW,236,2.0,8.0,56,0.00,,,0.03,,2013-02-12 16:11:00,
2013-02-12 11:22:00,41.0,27.0,29.46,SW,236,0.0,0.0,57,0.00,,,0.02,,2013-02-12 16:22:00,
2013-02-12 11:32:00,42.0,28.0,29.46,SW,236,0.0,0.0,57,0.00,,,0.02,,2013-02-12 16:32:00,
2013-02-12 11:42:00,42.0,28.0,29.46,SW,236,0.0,0.0,57,0.00,,,0.02,,2013-02-12 16:42:00,
2013-02-12 11:51:00,42.0,28.0,29.46,SW,236,0.0,0.0,57,0.00,,,0.02,,2013-02-12 16:51:00,
2013-02-12 12:01:00,42.0,28.0,29.47,SW,236,0.0,0.0,57,0.00,,,0.02,,2013-02-12 17:01:00,
2013-02-12 12:12:00,42.0,28.0,29.47,SW,236,0.0,0.0,57,0.00,,,0.02,,2013-02-12 17:12:00,
2013-02-12 12:21:00,42.0,28.0,29.47,SW,236,0.0,0.0,57,0.00,,,0.02,,2013-02-12 17:21:00,
2013-02-12 12:32:00,41.0,27.0,29.47,SW,236,0.0,0.0,57,0.00,,,0.01,,2013-02-12 17:32:00,
2013-02-12 12:42:00,41.0,27.0,29.47,SW,236,0.0,0.0,57,0.00,,,0.01,,2013-02-12 17:42:00,
2013-02-12 12:52:00,41.0,27.0,29.47,SW,236,0.0,0.0,57,0.00,,,0.01,,2013-02-12 17:52:00,
2013-02-12 13:02:00,42.0,27.0,29.47,West,277,0.0,0.0,56,0.00,,,0.01,,2013-02-12 18:02:00,
2013-02-12 13:12:00,42.0,27.0,29.46,West,277,0.0,0.0,56,0.00,,,0.01,,2013-02-12 18:12:00,
2013-02-12 13:23:00,42.0,27.0,29.46,West,277,0.0,0.0,56,0.00,,,0.01,,2013-02-12 18:23:00,
2013-02-12 13:32:00,44.0,28.0,29.46,North,359,0.0,0.0,54,0.00,,,0.01,,2013-02-12 18:32:00,
2013-02-12 13:42:00,44.0,28.0,29.46,North,359,0.0,0.0,54,0.00,,,0.01,,2013-02-12 18:42:00,
2013-02-12 13:52:00,44.0,28.0,29.47,North,359,0.0,0.0,54,0.00,,,0.01,,2013-02-12 18:52:00,
2013-02-12 14:02:00,43.0,27.0,29.47,West,281,0.0,0.0,52,0.00,,,0.01,,2013-02-12 19:02:00,
2013-02-12 14:11:00,43.0,27.0,29.47,West,281,0.0,0.0,52,0.00,,,0.01,,2013-02-12 19:11:00,
2013-02-12 14:21:00,43.0,27.0,29.47,West,266,0.0,0.0,53,0.00,,,0.01,,2013-02-12 19:21:00,
2013-02-12 14:32:00,43.0,27.0,29.46,West,266,0.0,0.0,53,0.00,,,0.01,,2013-02-12 19:32:00,
2013-02-12 14:42:00,43.0,27.0,29.46,West,266,0.0,0.0,53,0.00,,,0.01,,2013-02-12 19:42:00,
2013-02-12 14:51:00,43.0,28.0,29.46,NNW,346,0.0,0.0,54,0.00,,,0.01,,2013-02-12 19:51:00,
2013-02-12 15:01:00,42.0,27.0,29.46,NNW,346,0.0,0.0,55,0.00,,,0.01,,2013-02-12 20:01:00,
2013-02-12 15:11:00,42.0,27.0,29.46,NNW,346,0.0,0.0,55,0.00,,,0.01,,2013-02-12 20:11:00,
2013-02-12 15:21:00,42.0,27.0,29.46,NNW,346,0.0,0.0,55,0.00,,,0.01,,2013-02-12 20:21:00,
2013-02-12 15:32:00,42.0,27.0,29.46,NNW,346,0.0,0.0,56,0.00,,,0.01,,2013-02-12 20:32:00,
2013-02-12 15:41:00,42.0,27.0,29.46,NNW,346,0.0,0.0,56,0.00,,,0.01,,2013-02-12 20:41:00,
2013-02-12 15:52:00,41.0,27.0,29.45,NNW,346,0.0,0.0,57,0.00,,,0.01,,2013-02-12 20:52:00,
2013-02-12 16:02:00,41.0,27.0,29.45,NNW,346,0.0,0.0,58,0.00,,,0.01,,2013-02-12 21:02:00,
2013-02-12 16:11:00,41.0,27.0,29.45,NNW,346,0.0,0.0,58,0.00,,,0.01,,2013-02-12 21:11:00,
2013-02-12 16:21:00,41.0,27.0,29.44,NNW,346,0.0,0.0,58,0.00,,,0.01,,2013-02-12 21:21:00,
2013-02-12 16:32:00,41.0,28.0,29.43,NNW,346,0.0,0.0,59,0.00,,,0.01,,2013-02-12 21:32:00,
2013-02-12 16:42:00,41.0,28.0,29.40,NNW,346,0.0,0.0,60,0.00,,,0.01,,2013-02-12 21:42:00,
2013-02-12 16:51:00,41.0,28.0,29.40,NNW,346,0.0,0.0,60,0.00,,,0.01,,2013-02-12 21:51:00,
2013-02-12 17:01:00,40.0,27.0,29.43,NNW,346,0.0,0.0,60,0.00,,,0.01,,2013-02-12 22:01:00,
2013-02-12 17:12:00,40.0,27.0,29.43,NNW,346,0.0,0.0,60,0.00,,,0.01,,2013-02-12 22:12:00,
2013-02-12 17:21:00,40.0,27.0,29.45,NNW,346,0.0,0.0,59,0.00,,,0.01,,2013-02-12 22:21:00,
2013-02-12 17:32:00,40.0,27.0,29.46,NNW,346,0.0,0.0,59,0.00,,,0.01,,2013-02-12 22:32:00,
2013-02-12 17:42:00,40.0,27.0,29.46,NNW,346,0.0,0.0,59,0.00,,,0.01,,2013-02-12 22:42:00,
2013-02-12 17:51:00,40.0,27.0,29.47,NNW,346,0.0,0.0,60,0.00,,,0.01,,2013-02-12 22:51:00,
2013-02-12 18:01:00,40.0,27.0,29.50,NNW,346,0.0,0.0,60,0.00,,,0.01,,2013-02-12 23:01:00,
2013-02-12 18:11:00,40.0,27.0,29.50,NNW,346,0.0,0.0,60,0.00,,,0.01,,2013-02-12 23:11:00,
2013-02-12 18:21:00,40.0,27.0,29.50,NNW,346,0.0,0.0,60,0.00,,,0.01,,2013-02-12 23:21:00,
2013-02-12 18:32:00,39.0,27.0,29.55,NNW,346,0.0,0.0,62,0.00,,,0.01,,2013-02-12 23:32:00,
2013-02-12 18:42:00,39.0,27.0,29.55,NNW,346,0.0,0.0,62,0.00,,,0.01,,2013-02-12 23:42:00,
2013-02-12 18:52:00,39.0,27.0,29.53,NNW,346,0.0,0.0,62,0.00,,,0.01,,2013-02-12 23:52:00,
2013-02-12 19:02:00,39.0,27.0,29.54,NNW,346,0.0,0.0,63,0.00,,,0.01,,2013-02-13 00:02:00,
2013-02-12 19:11:00,39.0,27.0,29.54,NNW,346,0.0,0.0,63,0.00,,,0.01,,2013-02-13 00:11:00,
2013-02-12 19:21:00,39.0,28.0,29.52,NNW,346,0.0,0.0,64,0.00,,,0.01,,2013-02-13 00:21:00,
2013-02-12 19:32:00,38.0,27.0,29.53,NNW,346,0.0,0.0,63,0.00,,,0.01,,2013-02-13 00:32:00,
2013-02-12 19:42:00,38.0,27.0,29.53,NNW,346,0.0,0.0,63,0.00,,,0.01,,2013-02-13 00:42:00,
2013-02-12 19:52:00,38.0,27.0,29.53,NNW,346,0.0,0.0,63,0.00,,,0.01,,2013-02-13 00:52:00,
2013-02-12 20:01:00,38.0,27.0,29.53,NNW,346,0.0,0.0,64,0.00,,,0.01,,2013-02-13 01:01:00,
2013-02-12 20:11:00,38.0,27.0,29.53,NNW,346,0.0,0.0,64,0.00,,,0.01,,2013-02-13 01:11:00,
2013-02-12 20:21:00,38.0,27.0,29.53,NNW,346,0.0,0.0,63,0.00,,,0.01,,2013-02-13 01:21:00,
2013-02-12 20:31:00,38.0,27.0,29.53,NNW,346,0.0,0.0,63,0.00,,,0.01,,2013-02-13 01:31:00,
2013-02-12 20:42:00,38.0,27.0,29.53,NNW,346,0.0,0.0,63,0.00,,,0.01,,2013-02-13 01:42:00,
2013-02-12 20:51:00,38.0,27.0,29.52,NNW,346,0.0,0.0,65,0.00,,,0.01,,2013-02-13 01:51:00,
2013-02-12 21:01:00,37.0,26.0,29.52,NNW,346,0.0,0.0,65,0.00,,,0.01,,2013-02-13 02:01:00,
2013-02-12 21:11:00,37.0,26.0,29.52,NNW,346,0.0,0.0,65,0.00,,,0.01,,2013-02-13 02:11:00,
2013-02-12 21:22:00,36.0,26.0,29.51,NNW,346,0.0,0.0,67,0.00,,,0.01,,2013-02-13 02:22:00,
2013-02-12 21:32:00,35.0,28.0,29.50,NNW,346,0.0,0.0,74,0.00,,,0.01,,2013-02-13 02:32:00,
2013-02-12 21:42:00,35.0,28.0,29.50,NNW,346,0.0,0.0,74,0.00,,,0.01,,2013-02-13 02:42:00,
2013-02-12 21:52:00,34.0,27.0,29.49,NNW,346,0.0,0.0,76,0.00,,,0.01,,2013-02-13 02:52:00,
2013-02-12 22:01:00,33.0,28.0,29.49,NNW,346,0.0,0.0,81,0.00,,,0.01,,2013-02-13 03:01:00,
2013-02-12 22:11:00,32.0,27.0,29.49,NNW,346,0.0,0.0,83,0.00,,,0.01,,2013-02-13 03:11:00,
2013-02-12 22:21:00,32.0,27.0,29.49,NNW,346,0.0,0.0,83,0.00,,,0.01,,2013-02-13 03:21:00,
2013-02-12 22:32:00,31.0,28.0,29.49,NNW,346,0.0,0.0,88,0.00,,,0.01,,2013-02-13 03:32:00,
2013-02-12 22:42:00,31.0,28.0,29.49,NNW,346,0.0,0.0,88,0.00,,,0.01,,2013-02-13 03:42:00,
2013-02-12 22:51:00,31.0,28.0,29.49,NNW,346,0.0,0.0,88,0.00,,,0.01,,2013-02-13 03:51:00,
2013-02-12 23:01:00,30.0,27.0,29.50,NNW,346,0.0,0.0,89,0.00,,,0.01,,2013-02-13 04:01:00,
2013-02-12 23:11:00,30.0,27.0,29.50,NNW,346,0.0,0.0,89,0.00,,,0.01,,2013-02-13 04:11:00,
2013-02-12 23:21:00,30.0,27.0,29.50,NNW,346,0.0,0.0,89,0.00,,,0.01,,2013-02-13 04:21:00,
2013-02-12 23:32:00,30.0,28.0,29.49,NNW,346,0.0,0.0,91,0.00,,,0.01,,2013-02-13 04:32:00,
2013-02-12 23:42:00,30.0,28.0,29.49,NNW,346,0.0,0.0,91,0.00,,,0.01,,2013-02-13 04:42:00,
2013-02-12 23:51:00,29.0,26.0,29.49,NNW,346,0.0,0.0,89,0.00,,,0.01,,2013-02-13 04:51:00,